STARLINK-37528, 68904

Orbit data source: Space-Track

STARLINK-37528, 68904 is a payload satellite owned by SpaceX/Seattle (US) in SSO that was launched on Thu, 30 Apr 2026 UTC via an FALCON 9 launch vehicle from the Air Force Western Test Range (AFWTR). Payload-class satellites include a variety of spacecraft equipped with specific instruments for various scientific and technological missions. These include communications satellites like Starlink; space stations such as the ISS; scientific satellites like the Hubble; Earth observation satellites from companies like Planet Labs, Umbra, and HawkEye 360; GPS; miniature CubeSats for education and research; and military/defense satellites.

Loading next visibility...
Identifier
68904, 2026-097K
Orbit
SSO
Country
Flag of USUS
Related business
Manufacturer
SpaceX/Seattle
Mission
Operational spacecraft
Bus & Motor
STARLINK V2MO, Unknown motor
Mass
575 kg wet, ~530 kg dry
Launch date (UTC)
2026-04-30 (2 months ago)
Launch vehicle
FALCON 9
Launch site
Air Force Western Test Range (AFWTR)
Object type
Payload
Rocket body
Debris
Shape & HBR
Unknown shape, 14.5 m
Radar Cross Section
Large (>1 m²)

Expand to show TLE details & history
Last TLE update: 13 hours ago

TLE from 13 hours ago
0 STARLINK-37528
1 68904U 26097K   26171.29343816  .00018738  00000-0  58103-3 0  9991
2 68904  97.2879   6.7829 0000897 100.0589 260.0755 15.33460615  7961
Epoch: 2026-06-20T07:02Z
TLE epoch observation values (Epoch: 2026-06-20T07:02:33.057Z)
Latitude
0.00001°
Longitude
-7.36498°
Altitude
468.715 km
Speed
7.632 km/s
True Right ascension
00h 27m 07s
True Declination
0° 00' 00"
Sunlit
Object was in daylight at epoch
Visualization orbit readout
Latitude
Unknown
Longitude
Unknown
Altitude
Unknown
Speed
Unknown
Apparent Right ascension
Unknown
Apparent Declination
Unknown
Sunlit
N/A
Visualization observer readout
Local Sidereal Time
07:24:31
Azimuth
Unknown
Elevation
Unknown
Doppler factor
Unknown
Orbital elements
Apogee altitude
463.053 km
Perigee altitude
461.826 km
Semi-major axis
6,840.577 km
Eccentricity
0.00009
Inclination
97.2879°
RAAN
6.7829°
Arg. of periapsis
100.0589°
True anomaly
260.06538°
Mean anomaly
260.0755°
Eccentric anomaly
260.07044°
Mean motion
3.83623 °/min
Orbital period
93.84 mins
BSTAR
0.00058103
Loading maneuver chart data...
Computing Atmospheric mass density...
Loading historical data...
Loading historical data...
Loading historical data...
Loading historical data...
Loading historical data...
Loading historical data...
Loading historical data...

Documentation

Showing up to 5 results
|